Regional Weather Roundup
Issued by NWS Northern Indiana

Home | Current Version | Previous Version | Text Only | Print | Product List | Glossary On
Versions: 1 2 3 4 5 6 7 8 9 10 11 12 13 14 15 16 17 18 19 20 21 22 23 24 25 26 27 28 29 30 31 32 33 34 35 36 37 38 39 40 41 42 43 44 45 46 47 48 49 50
000
ASUS43 KIWX 291410
RWRIWX

KIWX WEATHER ROUNDUP
NATIONAL WEATHER SERVICE NORTHERN INDIANA
1000 AM EDT SAT APR 29 2017

NOTE: "FAIR" INDICATES FEW OR NO CLOUDS BELOW 12,000 FEET WITH NO
SIGNIFICANT WEATHER AND/OR OBSTRUCTIONS TO VISIBILITY.

* THESE STATIONS ARE NOT UNDER NWS QUALITY CONTROL. THEY ALSO MAY NOT
  REPORT WEATHER SUCH AS PRECIPITATION OR FOG.

INZ001>027-291500-
NORTHERN INDIANA

CITY           SKY/WX    TMP DP  RH WIND       PRES   REMARKS
GARY*          CLOUDY    46  39  76 N17G31    30.15S
VALPARAISO     CLOUDY    50  44  80 N10       30.10S
MICHIGAN CITY* PTSUNNY   46  43  87 N10       30.11S
LAPORTE*       CLOUDY    50  44  80 NE10      30.11R
KNOX*          CLOUDY    50  27  40 NE16      30.08R
SOUTH BEND     CLOUDY    50  43  77 NE10      30.11S
ELKHART*       MOSUNNY   50  41  71 NE14      30.09F
GOSHEN         CLOUDY    52  42  69 NE15G22   30.09F
MONTICELLO*    LGT RAIN  50  48  93 NE9       30.05S
LOGANSPORT*    CLOUDY    52  50  93 N9        30.06R
ROCHESTER*     CLOUDY    54  46  76 NE12G18   30.08R
WARSAW*        CLOUDY    50  43  76 NE12      30.10R
ANGOLA*        CLOUDY    48  36  61 NE7       30.10S
FORT WAYNE     CLOUDY    55  52  89 NE10      30.07R
HUNTINGTON*    RAIN     N/A N/A N/A E12G18    30.03F
PERU/GRISSOM   LGT RAIN  54  54 100 NE9       30.04S
MARION*        LGT RAIN  54  54 100 E17       30.01F

$$
INZ028>050-291500-
CENTRAL INDIANA

CITY           SKY/WX    TMP DP  RH WIND       PRES   REMARKS
LAFAYETTE      RAIN      50  50 100 NE9       30.04R FOG
KOKOMO*        LGT RAIN  54  54 100 N15G22    30.06R FOG
MUNCIE*        LGT RAIN  57  55  93 E7        30.03R
INDIANAPOLIS   LGT RAIN  57  56  96 E7        30.01R FOG

$$
MIZ043>046-050>051-056>058-064>065-071>073-077>080-291500-
SOUTHWEST LOWER MICHIGAN

CITY           SKY/WX    TMP DP  RH WIND       PRES   REMARKS
BATTLE CREEK   CLOUDY    49  42  77 N14       30.12F
BENTON HARBOR  CLOUDY    51  40  65 NE8       30.12F
COLDWATER*     CLOUDY    48  41  77 NE9       30.11S
HILLSDALE*     CLOUDY    46  37  71 NE7       30.10R
HOLLAND        CLOUDY    48  36  63 NE12      30.17R
GRAND RAPIDS   CLOUDY    47  38  71 NE13      30.17R
KALAMAZOO      CLOUDY    50  41  71 N10       30.13R
STURGIS*       CLOUDY    49  42  78 NE10G18   30.10S
THREE RIVERS*  FAIR      49  42  77 NE9       30.11S

$$
OHZ001>008-015>018-024>025-291500-
NORTHWEST OHIO

CITY           SKY/WX    TMP DP  RH WIND       PRES   REMARKS
WAUSEON*       CLOUDY    52  48  87 NE16G22   30.11R
DEFIANCE       LGT RAIN  52  48  86 N15       30.10R
FINDLAY        LGT RAIN  57  54  89 NE9       30.06F FOG
TOLEDO EXPRESS CLOUDY    48  45  89 NE15      30.11R
TOLEDO METCALF CLOUDY    48  43  82 NE12      30.14R
LIMA           LGT RAIN  56  56 100 NE10      30.03F

$$
AND FOR LAKE MICHIGAN COASTAL AND OPEN LAKE BUOY OBSERVATIONS

STATION/POSITION TEMP    WIND        PRES    VSBY  WAVE
                 AIR SEA DIR/SP/G                  HT/PER
                 (F)     (DEG/KT/KT) (MB)    (MI)  (FT/S)
CALUMET HARBOR    45     350/ 16/ 23 1020.1S
MICHIGAN CITY     44      10/ 22/ 23   N/A
BURNS HARBOR      45      20/ 20/ 24 1019.6F
SOUTH LAKE BUOY   41 41   20/ 19/ 21 1022.1          4/ 5
4 MI NW BRIDGMAN  46 48   40/ 14/ 17 1020.8          3/ 4
MICHIGAN CITY     44 46                N/A           5/ 5

$$
&&



USA.gov is the U.S. government's official web portal to all federal, state and local government web resources and services.